Location: Shenandoah County Park
(38.9356°N, 78.4524°W)
Time: 12:05:12
(UTC-05:00)

Transit 2A - Visible Passes

Search period start: 30 January 2023 00:00
Search period end: 09 February 2023 00:00
Orbit: 594 x 962 km, 66.7° (Epoch: 29 January)

Date Brightness Start Highest point End Pass type
(mag) Time Alt. Az. Time Alt. Az. Time Alt. Az.
30 Jan 7.1 18:40:03 10° WSW 18:44:29 39° NW 18:49:25 10° NNE visible
31 Jan 6.4 18:05:14 10° SW 18:09:52 59° WNW 18:15:03 10° NNE visible
31 Jan 8.8 19:53:53 10° NW 19:54:21 10° NW 19:54:51 10° NNW visible
01 Feb 8.5 19:16:48 10° WNW 19:19:25 14° NW 19:22:11 10° N visible
02 Feb 8.2 18:41:02 10° W 18:44:34 19° NW 18:48:21 10° N visible
03 Feb 7.8 18:05:41 10° WSW 18:09:47 27° NW 18:14:16 10° N visible
06 Feb 8.5 18:07:26 10° WNW 18:10:02 14° NW 18:12:46 10° N visible
